Regional Weather Roundup
Issued by NWS

Home | Current Version | Previous Version | Graphics & Text | Print | Product List | Glossary On
Versions: 1 2 3 4 5 6 7 8 9 10 11 12 13 14 15 16 17 18 19 20 21 22 23 24 25 26 27 28 29 30 31 32 33 34 35 36 37 38 39 40 41 42 43 44 45 46 47 48 49 50
000
ASUS43 KOAX 252110
RWRNE

WEATHER ROUNDUP FOR NEBRASKA
NATIONAL WEATHER SERVICE OMAHA NE
400 PM CDT MON JUL 25 2016

NOTES: SATELLITE DATA IS BEING USED TO AUGMENT CLOUD COVER ABOVE
       12000 FEET.
       "FAIR" INDICATES FEW OR NO CLOUDS BELOW 12,000 FEET WITH NO
       SIGNIFICANT WEATHER AND/OR OBSTRUCTIONS TO VISIBILITY.

  * THESE STATIONS DO NOT REPORT WEATHER SUCH AS RAIN...SNOW OR FOG.

NEZ001>004-019>022-054>056-252200-
NEBRASKA PANHANDLE

CITY           SKY/WX    TMP DP  RH WIND       PRES   REMARKS
SCOTTSBLUFF    SUNNY     93  55  27 SE15G21   30.07F HX  91
ALLIANCE       SUNNY     87  58  37 S21G31    30.10F
CHADRON        SUNNY     92  54  27 S21       30.03F HX  90
KIMBALL        SUNNY     86  59  39 S18G25    30.16S
SIDNEY         SUNNY     87  59  38 S22G30    30.15F
$$

NEZ057>060-069>072-079>082-252200-
SOUTHWEST NEBRASKA

CITY           SKY/WX    TMP DP  RH WIND       PRES   REMARKS
NORTH PLATTE   MOSUNNY   85  66  53 SE8       30.09F
IMPERIAL       SUNNY     89  58  34 SE21G28   30.10F
LEXINGTON      SUNNY     85  66  53 SE12      30.11F
MCCOOK         SUNNY     89  64  43 SE16      30.09F HX  90
OGALLALA       SUNNY     88  58  36 SE13G20   30.10F
$$

NEZ005>010-023>029-035>040-094-252200-
NORTH CENTRAL NEBRASKA

CITY           SKY/WX    TMP DP  RH WIND       PRES   REMARKS
VALENTINE      SUNNY     91  52  26 S22G28    30.07F
AINSWORTH      SUNNY     88  54  31 S17       30.09F
BROKEN BOW     SUNNY     85  59  41 SE13G24   30.11F
O`NEILL        SUNNY     88  50  27 S12       30.10F
ORD            SUNNY     85  60  42 S9        30.09F
THEDFORD       SUNNY     87  61  41 S17       30.11F
$$

NEZ041-046>049-061>064-073>077-083>087-252200-
SOUTH CENTRAL NEBRASKA

CITY           SKY/WX    TMP DP  RH WIND       PRES   REMARKS
GRAND ISLAND   SUNNY     86  63  45 SE12      30.10F
AURORA         SUNNY     84  65  52 SE6       30.10F
HASTINGS       SUNNY     87  57  35 SE12G17   30.11F
HEBRON         SUNNY     87  55  33 CALM      30.08F
HOLDREGE       MOSUNNY   84  64  50 S7        30.10F
KEARNEY *      SUNNY     88  64  45 SE10      30.11F
YORK           SUNNY     82  63  51 E5        30.10F
$$

NEZ011>018-030>034-042>045-252200-
NORTHEAST NEBRASKA

CITY           SKY/WX    TMP DP  RH WIND       PRES   REMARKS
NORFOLK        SUNNY     84  58  40 S7        30.09F
ALBION         SUNNY     83  61  47 S6        30.10F
BLAIR          SUNNY     86  61  43 E6        30.09S
FREMONT        SUNNY     85  64  48 S6        30.09F
TEKAMAH        SUNNY     87  62  43 VRB5      30.07F
WAYNE          SUNNY     84  67  56 S6        30.10F
$$

NEZ050>053-065>068-078-088>093-252200-
SOUTHEAST NEBRASKA

CITY           SKY/WX    TMP DP  RH WIND       PRES   REMARKS
LINCOLN        SUNNY     88  58  36 E7        30.08F
OMAHA EPPLEY   MOSUNNY   88  64  44 NE6       30.07F
BEATRICE       SUNNY     88  55  33 E3        30.07F
FALLS CITY     SUNNY     86  67  52 NE10      30.04F
NEBRASKA CITY  SUNNY     83  67  58 NE7       30.07F
PLATTSMOUTH    SUNNY     85  66  52 N5        30.07F
$$

NEZ044-045-051>053-067-252200-
OMAHA AREA

CITY           SKY/WX    TMP DP  RH WIND       PRES   REMARKS
OMAHA EPPLEY   MOSUNNY   88  64  44 NE6       30.07F
BLAIR          SUNNY     86  61  43 E6        30.09S
FREMONT        SUNNY     85  64  48 S6        30.09F
MILLARD        SUNNY     88  66  48 SE3       30.06F HX  90
PLATTSMOUTH    SUNNY     85  66  52 N5        30.07F
WAHOO          FAIR      85  60  42 CALM      30.09S
$$




USA.gov is the U.S. government's official web portal to all federal, state and local government web resources and services.